sat.trackr.live / text

‹ back to catalog

STARLINK-35994

NORAD 66818 · 2025-278AD

PAYLOAD ACTIVE UNKNOWN

§ Identity

Operator
Country
US
Launch date
2025-12-01
Launch site
AFETR
Launch vehicle
Mass (kg)
RCS (m²)

Purposes: comms

External: N2YO · Heavens-Above · Gunter

§ Orbital elements

Epoch: 2026-05-25T02:05:34.924128Z

Period
94.27 min
Inclination
43.0031°
Eccentricity
0.0001266
Mean motion
15.27598861 rev/d
Perigee alt
482.1 km
Apogee alt
483.9 km
Semi-major
6,861.1 km
B*
7.4027e-4
RAAN
42.8703°
Arg perigee
276.9251°
Mean anomaly
83.1457°
Rev number
2,689

§ Raw data

STARLINK-359941 66818U 25278AD  26145.08720977  .00020176  00000+0  74027-3 0  99992 66818  43.0031  42.8703 0001266 276.9251  83.1457 15.27598861 26898

JSON: /api/v1/satellites/66818 · /tle

For live sub-satellite position, see the globe view (requires WebGL).

§ Visibility from observer

Set your observer location to see the next 7 days of passes ≥ 10°. The values pass through the URL so the page stays shareable.

No JS? Fill the form by hand. The geolocation button needs JavaScript.